This is the latest recevied weather packets stored in our database for station/object N5ZP. If no packets are shown the sender has not sent any weather packets the latest 10 day(s).
| Time | Temp. | Humidity | Pressure | Rain* | Wind** | Luminosity | Snow |
|---|---|---|---|---|---|---|---|
| 1777652858 | 16.67° C | 73% | 1014.3 hPa | 0 mm | - | 617 W/m² | - |
| 1777652555 | 15.56° C | 72% | 1014.5 hPa | 0 mm | - | 375 W/m² | - |
| 1777652252 | 16.11° C | 71% | 1014.7 hPa | 0 mm | - | 292 W/m² | - |
| 1777651949 | 16.11° C | 73% | 1014.6 hPa | 0 mm | - | 538 W/m² | - |
| 1777651646 | 15.56° C | 74% | 1014.6 hPa | 0 mm | - | 293 W/m² | - |
| 1777651343 | 15.56° C | 74% | 1014.5 hPa | 0 mm | - | 283 W/m² | - |
| 1777651040 | 15.56° C | 75% | 1014.9 hPa | 0 mm | - | 261 W/m² | - |
| 1777650737 | 15° C | 75% | 1014.9 hPa | 0 mm | - | 221 W/m² | - |
| 1777650434 | 15° C | 76% | 1015.2 hPa | 0 mm | - | 161 W/m² | - |
| 1777650131 | 15° C | 78% | 1014.5 hPa | 0 mm | - | 247 W/m² | - |
| 1777649829 | 15° C | 79% | 1014.6 hPa | 0 mm | - | 180 W/m² | - |
| 1777649526 | 15° C | 80% | 1014.5 hPa | 0 mm | - | 231 W/m² | - |
| 1777649221 | 14.44° C | 82% | 1014.5 hPa | 0 mm | - | 248 W/m² | - |
| 1777648919 | 14.44° C | 83% | 1014.7 hPa | 0 mm | - | 161 W/m² | - |
| 1777648616 | 14.44° C | 84% | 1014.5 hPa | 0 mm | - | 127 W/m² | - |
| 1777648312 | 14.44° C | 85% | 1014.5 hPa | 0 mm | - | 88 W/m² | - |
| 1777648009 | 14.44° C | 85% | 1014.4 hPa | 0 mm | - | 81 W/m² | - |
| 1777647705 | 14.44° C | 86% | 1014.3 hPa | 0 mm | - | 82 W/m² | - |
| 1777647401 | 14.44° C | 87% | 1014.5 hPa | 0 mm | - | 68 W/m² | - |
| 1777647099 | 13.89° C | 87% | 1014.4 hPa | 0 mm | - | 76 W/m² | - |
| 1777646795 | 13.89° C | 87% | 1014.1 hPa | 0 mm | - | 53 W/m² | - |
| 1777646490 | 13.89° C | 88% | 1013.8 hPa | 0 mm | - | 53 W/m² | - |
| 1777646186 | 13.89° C | 87% | 1014 hPa | 0 mm | - | 49 W/m² | - |
| 1777645884 | 13.89° C | 87% | 1013.9 hPa | 0 mm | - | 46 W/m² | - |
| 1777645581 | 13.89° C | 88% | 1014.2 hPa | 0 mm | - | 44 W/m² | - |
* Rain latest hour (hover to see other rain measurements)
** Current wind speed in m/s (hover to see current wind gust speed)